Location: Eboldshausen
(51.7766°N, 10.0050°E)
Time: 06:49:55
(UTC+00:00)

Cosmos 2221 Rocket - Pass Details

Date: 15 November 2025
Orbit: 614 x 642 km, 82.5° (Epoch: 10 December)

Event Time Altitude Azimuth Distance (km) Brightness Sun altitude
Rises 15:58:32 0° 349° (N) 2,951 6.9 -4.9°
Reaches altitude 10° 16:00:47 10° 350° (N) 2,033 6.1 -5.2°
Maximum altitude 16:05:19 85° 78° (ENE) 641 3.6 -5.8°
Drops below altitude 10° 16:09:46 10° 169° (S) 1,999 6.3 -6.4°
Sets 16:11:58 0° 170° (S) 2,897 7.2 -6.8°
